Terminal Aerodrome Forecast
Issued by NWS

Home | Current Version | Previous Version | Text Only | Print | Product List | Glossary On
Versions: 1 2 3 4 5 6 7 8 9 10 11 12 13 14 15 16 17 18 19 20
618
FTUS43 KDLH 230520
TAFHIB
TAF
KHIB 230520Z 2306/2406 VRB03KT P6SM BKN200
     FM230800 VRB02KT 4SM BR SCT200
      TEMPO 2309/2312 3/4SM BR SCT005 BKN200
     FM231400 12008KT P6SM BKN200
     FM232200 12009KT P6SM VCSH SCT025 BKN050 PROB30 2322/2401 5SM
      TSRA BKN025CB
     FM240100 12004KT 4SM TSRA BR SCT007 OVC015CB=

USA.gov is the U.S. government's official web portal to all federal, state and local government web resources and services.